Location: U-46 Planetarium
(42.0300°N, 88.2740°W)
Time: 16:00:39
(UTC-06:00)

PSLV R/B - Pass Details

Date: 16 December 2017
Orbit: 362 x 393 km, 41.0° (Epoch: 22 January)

Event Time Altitude Azimuth Distance (km) Brightness Sun altitude
Rises 17:42:20 0° 260° (W) 2,261 8.8 -14.2°
Reaches altitude 10° 17:44:26 10° 259° (WSW) 1,401 7.3 -14.6°
Maximum altitude 17:47:34 71° 175° (S) 404 3.1 -15.1°
Enters shadow 17:48:42 35° 100° (E) 627 3.6 -15.3°
